Weather History for K0E0 - June, 2013

Change the Weather History Date:

Saturday, June 29, 2013

  Actual Average (KABQ) Record (KABQ)
Temperature  
Mean Temperature 73 °F 78 °F  
Max Temperature 94 °F 91 °F 105 °F (1980)
Min Temperature 52 °F 65 °F 48 °F (1915)
Degree Days  
Heating Degree Days 0 0  
Month to date heating degree days 0  
Since 1 June heating degree days 0  
Since 1 July heating degree days 4175  
Cooling Degree Days 8 13  
Month to date cooling degree days 288  
Year to date cooling degree days 386  
Since 1 June cooling degree days 288  
Growing Degree Days 23 (Base 50)    
Moisture  
Dew Point 41 °F    
Average Humidity 36    
Maximum Humidity 67    
Minimum Humidity 14    
Precipitation  
Precipitation 0.00 in 0.04 in 0.93 in (1978)
Month to date precipitation 0.63  
Year to date precipitation 3.17  
Snow  
Snow 0.00 in - - ()
Month to date snowfall  
Since 1 June snowfall  
Since 1 July snowfall  
Snow Depth -    
Sea Level Pressure  
Sea Level Pressure 30.28 in    
Wind  
Wind Speed 5 mph (NNE)    
Max Wind Speed 20 mph    
Max Gust Speed 24 mph    
Visibility 10 miles    
Events      
T = Trace of Precipitation, MM = Missing Value Source: NWS Daily Summary

Daily Weather History Graph

Daily Weather History Graph

Search for Another Location

Airport or City:

Trip Planner

Search our weather history database for the weather conditions in past years. The results will help you decide how hot, cold, wet, or windy it might be!

Date:

Astronomy

Jun. 29, 2013 Rise Set
Actual Time 5:53 AM MDT 8:22 PM MDT
Civil Twilight 5:23 AM MDT 8:51 PM MDT
Nautical Twilight 4:46 AM MDT 9:28 PM MDT
Astronomical Twilight 4:06 AM MDT 10:08 PM MDT
Moon 12:08 AM MDT (6/29) 12:49 PM MDT (6/29)
Length of Visible Light 15h 28m
Length of Day
14h 28m
Waning Gibbous, 55% of the Moon is Illuminated
Jun 29
Waning Gibbous
Jun 29
Last Quarter
Jul 8
New
Jul 15
First Quarter
Jul 22
Full

Hourly Weather History & Observations

Time (MDT) Temp. Dew Point Humidity Pressure Visibility Wind Dir Wind Speed Gust Speed Precip Events Conditions
12:15 AM 66.9 °F 47.5 °F 50% 30.36 in 10.0 mi NNE 4.6 mph - N/A   Clear
12:35 AM 67.3 °F 46.4 °F 47% 30.36 in 10.0 mi Calm Calm - N/A   Clear
12:55 AM 66.0 °F 45.7 °F 48% 30.35 in 10.0 mi North 4.6 mph - N/A   Clear
1:15 AM 64.4 °F 44.8 °F 49% 30.35 in 10.0 mi Calm Calm - N/A   Clear
1:35 AM 63.9 °F 48.7 °F 58% 30.34 in 10.0 mi Calm Calm - N/A   Clear
1:55 AM 60.6 °F 47.3 °F 61% 30.34 in 10.0 mi NE 3.5 mph - N/A   Clear
2:15 AM 59.7 °F 48.9 °F 67% 30.34 in 10.0 mi ENE 3.5 mph - N/A   Clear
2:35 AM 58.1 °F 45.1 °F 62% 30.33 in 10.0 mi NNW 6.9 mph - N/A   Clear
2:55 AM 58.1 °F 43.7 °F 59% 30.33 in 10.0 mi NW 5.8 mph - N/A   Clear
3:15 AM 55.4 °F 41.4 °F 59% 30.32 in 10.0 mi North 4.6 mph - N/A   Clear
3:35 AM 55.4 °F 42.4 °F 62% 30.32 in 10.0 mi North 5.8 mph - N/A   Clear
3:55 AM 54.9 °F 42.6 °F 63% 30.32 in 10.0 mi NNE 4.6 mph - N/A   Clear
4:15 AM 54.3 °F 40.1 °F 59% 30.31 in 10.0 mi NW 6.9 mph - N/A   Clear
4:35 AM 54.0 °F 39.6 °F 58% 30.32 in 10.0 mi NNW 5.8 mph - N/A   Clear
4:55 AM 53.6 °F 39.2 °F 58% 30.32 in 10.0 mi NNW 5.8 mph - N/A   Clear
5:15 AM 52.2 °F 38.7 °F 60% 30.32 in 10.0 mi North 4.6 mph - N/A   Clear
5:35 AM 52.9 °F 38.8 °F 59% 30.32 in 10.0 mi NNW 4.6 mph - N/A   Clear
5:55 AM 53.8 °F 40.5 °F 61% 30.32 in 10.0 mi NW 8.1 mph - N/A   Clear
6:15 AM 53.2 °F 40.1 °F 61% 30.32 in 10.0 mi Calm Calm - N/A   Clear
6:35 AM 52.0 °F 39.7 °F 63% 30.33 in 10.0 mi North 3.5 mph - N/A   Clear
6:55 AM 55.4 °F 41.0 °F 58% 30.34 in 10.0 mi North 4.6 mph - N/A   Clear
7:15 AM 59.7 °F 41.5 °F 51% 30.34 in 10.0 mi North 5.8 mph - N/A   Clear
7:35 AM 64.0 °F 42.1 °F 45% 30.34 in 10.0 mi NE 3.5 mph - N/A   Clear
7:55 AM 66.6 °F 42.6 °F 42% 30.34 in 10.0 mi North 4.6 mph - N/A   Clear
8:15 AM 69.6 °F 41.9 °F 37% 30.33 in 10.0 mi North 4.6 mph - N/A   Clear
8:35 AM 71.8 °F 42.1 °F 34% 30.34 in 10.0 mi Calm Calm - N/A   Clear
8:55 AM 74.1 °F 42.4 °F 32% 30.33 in 10.0 mi Calm Calm - N/A   Clear
9:15 AM 76.8 °F 42.1 °F 29% 30.32 in 10.0 mi Calm Calm - N/A   Clear
9:35 AM 78.6 °F 41.4 °F 26% 30.32 in 10.0 mi South 4.6 mph - N/A   Clear
9:55 AM 81.5 °F 40.1 °F 23% 30.31 in 10.0 mi Calm Calm - N/A   Clear
10:15 AM 81.7 °F 39.0 °F 22% 30.31 in 10.0 mi East 3.5 mph - N/A   Clear
10:35 AM 82.6 °F 39.4 °F 21% 30.31 in 10.0 mi Calm Calm - N/A   Clear
10:55 AM 83.7 °F 40.3 °F 21% 30.31 in 10.0 mi South 3.5 mph - N/A   Clear
11:15 AM 86.0 °F 39.2 °F 19% 30.31 in 10.0 mi WSW 3.5 mph - N/A   Clear
11:35 AM 85.6 °F 37.6 °F 18% 30.30 in 10.0 mi SE 3.5 mph - N/A   Clear
11:55 AM 87.6 °F 37.2 °F 17% 30.29 in 10.0 mi South 8.1 mph - N/A   Clear
12:15 PM 86.9 °F 37.6 °F 17% 30.28 in 10.0 mi Calm Calm - N/A   Clear
12:35 PM 88.7 °F 37.4 °F 16% 30.27 in 10.0 mi WSW 5.8 mph - N/A   Clear
12:55 PM 90.0 °F 37.2 °F 16% 30.26 in 10.0 mi South 5.8 mph - N/A   Clear
1:15 PM 90.3 °F 37.6 °F 16% 30.25 in 10.0 mi WSW 5.8 mph - N/A   Clear
1:35 PM 90.1 °F 37.4 °F 16% 30.24 in 10.0 mi West 9.2 mph - N/A   Clear
1:55 PM 91.8 °F 38.1 °F 15% 30.23 in 10.0 mi SSW 5.8 mph - N/A   Clear
2:15 PM 91.9 °F 38.1 °F 15% 30.22 in 10.0 mi South 9.2 mph - N/A   Clear
2:35 PM 92.1 °F 37.9 °F 15% 30.20 in 10.0 mi East 5.8 mph - N/A   Clear
2:55 PM 92.7 °F 37.8 °F 15% 30.19 in 10.0 mi West 9.2 mph - N/A   Clear
3:15 PM 93.7 °F 38.3 °F 14% 30.19 in 10.0 mi WSW 9.2 mph - N/A   Clear
3:35 PM 94.8 °F 38.5 °F 14% 30.18 in 10.0 mi West 11.5 mph - N/A   Clear
3:55 PM 91.4 °F 37.4 °F 15% 30.18 in 10.0 mi SW 10.4 mph - N/A   Clear
4:15 PM 92.7 °F 37.0 °F 14% 30.17 in 10.0 mi WSW 12.7 mph - N/A   Clear
4:35 PM 90.3 °F 36.0 °F 15% 30.16 in 10.0 mi WNW 4.6 mph - N/A   Clear
4:55 PM 90.7 °F 35.6 °F 14% 30.16 in 10.0 mi NW 9.2 mph 16.1 mph N/A   Clear
5:15 PM 88.9 °F 34.7 °F 15% 30.18 in 10.0 mi NNW 6.9 mph - N/A   Mostly Cloudy
5:35 PM 84.4 °F 36.9 °F 18% 30.20 in 10.0 mi NE 15.0 mph - N/A   Mostly Cloudy
5:55 PM 83.1 °F 39.6 °F 21% 30.22 in 10.0 mi ENE 13.8 mph 20.7 mph N/A   Mostly Cloudy
6:15 PM 81.3 °F 40.3 °F 23% 30.23 in 10.0 mi NNE 19.6 mph 24.2 mph N/A   Overcast
6:35 PM 80.1 °F 41.7 °F 26% 30.23 in 10.0 mi ENE 13.8 mph - N/A   Scattered Clouds
6:55 PM 79.2 °F 42.8 °F 27% 30.25 in 10.0 mi East 12.7 mph - N/A   Scattered Clouds
7:15 PM 76.6 °F 46.4 °F 34% 30.27 in 10.0 mi East 11.5 mph - N/A   Mostly Cloudy
7:35 PM 77.2 °F 44.4 °F 31% 30.28 in 10.0 mi ENE 5.8 mph - N/A   Overcast
7:55 PM 77.4 °F 43.3 °F 30% 30.27 in 10.0 mi East 9.2 mph - N/A   Overcast
8:15 PM 77.9 °F 39.6 °F 25% 30.27 in 10.0 mi North 9.2 mph - N/A   Overcast
8:35 PM 76.6 °F 39.7 °F 27% 30.24 in 10.0 mi SE 6.9 mph - N/A   Mostly Cloudy
8:55 PM 76.3 °F 42.6 °F 30% 30.24 in 10.0 mi East 6.9 mph - N/A   Scattered Clouds
9:15 PM 73.0 °F 43.9 °F 35% 30.26 in 10.0 mi East 8.1 mph - N/A   Clear
9:35 PM 71.1 °F 46.4 °F 41% 30.26 in 10.0 mi East 6.9 mph - N/A   Clear
9:55 PM 70.5 °F 45.7 °F 41% 30.27 in 10.0 mi East 6.9 mph - N/A   Clear
10:15 PM 69.8 °F 45.3 °F 41% 30.27 in 10.0 mi East 4.6 mph - N/A   Clear
10:35 PM 68.4 °F 45.3 °F 44% 30.28 in 10.0 mi South 3.5 mph - N/A   Clear
10:55 PM 69.4 °F 44.1 °F 40% 30.29 in 10.0 mi Calm Calm - N/A   Clear
11:15 PM 69.1 °F 43.5 °F 40% 30.29 in 10.0 mi SW 4.6 mph - N/A   Clear
11:35 PM 67.5 °F 42.6 °F 41% 30.29 in 10.0 mi Calm Calm - N/A   Clear
11:55 PM 67.6 °F 43.5 °F 42% 30.31 in 10.0 mi South 8.1 mph - N/A   Clear